This is the latest recevied weather packets stored in our database for station/object SR9SMR. If no packets are shown the sender has not sent any weather packets the latest 1 day(s).
| Time | Temp. | Humidity | Pressure | Rain* | Wind** | Luminosity | Snow |
|---|---|---|---|---|---|---|---|
| 1778010446 | 15° C | 100% | 894.5 hPa | - | 8.05 m/s, 207° | - | - |
| 1778010324 | 15° C | 100% | 894.6 hPa | - | 8.49 m/s, 207° | - | - |
| 1778010203 | 15° C | 100% | 894.6 hPa | - | 7.6 m/s, 205° | - | - |
| 1778010143 | 15° C | 100% | 894.6 hPa | - | 7.6 m/s, 205° | - | - |
| 1778009943 | 15° C | 100% | 894.5 hPa | - | 8.05 m/s, 209° | - | - |
| 1778009882 | 15° C | 100% | 894.5 hPa | - | 8.05 m/s, 212° | - | - |
| 1778009753 | 15° C | 100% | 894.5 hPa | - | 6.71 m/s, 209° | - | - |
| 1778009692 | 15° C | 100% | 894.5 hPa | - | 6.71 m/s, 210° | - | - |
| 1778009603 | 15° C | 100% | 894.5 hPa | - | 6.26 m/s, 208° | - | - |
| 1778009541 | 15° C | 100% | 894.6 hPa | - | 7.15 m/s, 208° | - | - |
| 1778009371 | 15° C | 100% | 894.6 hPa | - | 9.39 m/s, 205° | - | - |
| 1778009250 | 15° C | 100% | 894.5 hPa | - | 8.94 m/s, 206° | - | - |
| 1778009129 | 15° C | 100% | 894.7 hPa | - | 8.05 m/s, 207° | - | - |
| 1778009005 | 15° C | 100% | 894.7 hPa | - | 7.6 m/s, 202° | - | - |
| 1778008943 | 15° C | 100% | 894.6 hPa | - | 8.05 m/s, 202° | - | - |
| 1778008822 | 15° C | 100% | 894.6 hPa | - | 8.05 m/s, 207° | - | - |
| 1778008697 | 15° C | 100% | 894.6 hPa | - | 7.15 m/s, 210° | - | - |
| 1778008569 | 15° C | 100% | 894.7 hPa | - | 6.71 m/s, 207° | - | - |
| 1778008445 | 15° C | 100% | 894.6 hPa | - | 7.6 m/s, 206° | - | - |
| 1778008385 | 15° C | 100% | 894.6 hPa | - | 8.05 m/s, 206° | - | - |
| 1778008250 | 15° C | 100% | 894.6 hPa | - | 8.94 m/s, 209° | - | - |
| 1778008188 | 15° C | 100% | 894.5 hPa | - | 8.94 m/s, 213° | - | - |
| 1778008126 | 15° C | 100% | 894.5 hPa | - | 8.49 m/s, 210° | - | - |
| 1778008002 | 15° C | 100% | 894.6 hPa | - | 8.05 m/s, 212° | - | - |
| 1778007878 | 15° C | 100% | 894.6 hPa | - | 8.05 m/s, 212° | - | - |
* Rain since midnight (hover to see other rain measurements)
** Current wind speed in m/s (hover to see current wind gust speed)